Preview of NWS' New Version of Forecast
This preview is not operational and should not be used for support decisions.

Regional Weather Roundup (RWR)

Issued by National Weather Service (NWS)

                            
000
ASUS44 KMEG 231100
RWRTN 
TENNESSEE HOURLY STATE WEATHER ROUNDUP
NATIONAL WEATHER SERVICE MEMPHIS TN
600 AM CDT THU MAY 23 2019

TNZ002-004-019-021-049-052-054-088>092-231200-
WEST TENNESSEE
  
CITY           SKY/WX    TMP DP  RH WIND       PRES   REMARKS
MEMPHIS INTL   FAIR      75  72  90 S7        30.12R                  
NWS MEMPHIS      N/A     73 N/A N/A MISG        N/A                   
JACKSON        FAIR      70  68  93 S5        30.14R                  
DYERSBURG      FAIR      75  70  84 VRB5      30.11S                  
$$

TNZ008-025-027-028-033-062-065-066-231200-
NORTH MIDDLE TENNESSEE
  
CITY           SKY/WX    TMP DP  RH WIND       PRES   REMARKS
NASHVILLE      MOCLDY    70  58  65 S6        30.17R                  
CLARKSVILLE    FAIR      72  64  76 S8        30.13R                  
SMYRNA         FAIR      66  59  78 SE3       30.19R                  
CROSSVILLE     FAIR      68  64  87 VRB3      30.26R                  
$$

TNZ061-075-076-078-094-096-097-231200-
SOUTH MIDDLE TENNESSEE
  
CITY           SKY/WX    TMP DP  RH WIND       PRES   REMARKS
$$

TNZ017-018-042-046-047-231200-
NORTHEAST TENNESSEE
  
CITY           SKY/WX    TMP DP  RH WIND       PRES   REMARKS
TRI CITIES     MOCLDY    64  62  93 CALM      30.24R FOG              
$$

TNZ012-013-036-069-073-074-231200-
CENTRAL EAST TENNESSEE
  
CITY           SKY/WX    TMP DP  RH WIND       PRES   REMARKS
KNOXVILLE      CLOUDY    70  65  84 CALM      30.20R                  
OAK RIDGE      FAIR      70  63  78 SW3       30.23R                  
$$

TNZ083-085-099-231200-
SOUTHEAST TENNESSEE
  
CITY           SKY/WX    TMP DP  RH WIND       PRES   REMARKS
CHATTANOOGA    MOCLDY    70  66  87 CALM      30.22R                  
$$

SKY/WX REPORTED AS FAIR MEANS FEW OR NO CLOUDS BELOW
12 THOUSAND FEET.